• In Uzbekistan
  • List of Countries
  • For 7 days
  • Water Temperature
  • Satellite Maps
  • Weather Map
  • Weather Widgets
  • user-avatar
    Login

    Hourly Weather Werdohl

    Today, 19 July, Thursday

    Time Temperature Precipitation Wind Pressure Humidity
    00:00 +16°C° 0 mm 2 mps 734 mmHg 72%
    01:00 +15°C° 0 mm 2 mps 734 mmHg 75%
    02:00 +15°C° 0 mm 2 mps 734 mmHg 75%
    03:00 +15°C° 0 mm 1 mps 734 mmHg 76%
    04:00 +14°C° 0 mm 1 mps 733 mmHg 76%
    05:00 +15°C° 0 mm 1 mps 734 mmHg 71%
    06:00 +16°C° 0 mm 1 mps 734 mmHg 67%
    07:00 +19°C° 0 mm 1 mps 734 mmHg 62%
    08:00 +21°C° 0 mm 1 mps 734 mmHg 56%
    09:00 +22°C° 0 mm 1 mps 734 mmHg 49%
    10:00 +24°C° 0 mm 1 mps 734 mmHg 43%
    11:00 +25°C° 0 mm 1 mps 734 mmHg 40%
    12:00 +26°C° 0 mm 1 mps 734 mmHg 38%
    13:00 +27°C° 0 mm 1 mps 734 mmHg 36%
    14:00 +27°C° 0 mm 1 mps 734 mmHg 36%
    15:00 +27°C° 0 mm 1 mps 733 mmHg 36%
    16:00 +27°C° 0 mm 1 mps 733 mmHg 37%
    17:00 +26°C° 0 mm 1 mps 733 mmHg 42%
    18:00 +25°C° 0 mm 1 mps 733 mmHg 47%
    19:00 +24°C° 0 mm 2 mps 732 mmHg 52%
    20:00 +23°C° 0 mm 2 mps 733 mmHg 56%
    21:00 +20°C° 0 mm 2 mps 733 mmHg 59%
    22:00 +18°C° 0 mm 2 mps 733 mmHg 63%
    23:00 +18°C° 0 mm 2 mps 733 mmHg 63%

    Tomorrow, 20 July, Friday

    Time Temperature Precipitation Wind Pressure Humidity
    00:00 +17°C° 0 mm 2 mps 732 mmHg 64%
    01:00 +17°C° 0 mm 2 mps 732 mmHg 64%
    02:00 +16°C° 0 mm 2 mps 732 mmHg 65%
    03:00 +16°C° 0 mm 2 mps 732 mmHg 66%
    04:00 +15°C° 0 mm 1 mps 731 mmHg 67%
    05:00 +16°C° 0 mm 1 mps 731 mmHg 66%
    06:00 +18°C° 0 mm 1 mps 731 mmHg 64%
    07:00 +19°C° 0 mm 1 mps 731 mmHg 62%
    08:00 +22°C° 0 mm 1 mps 731 mmHg 56%
    09:00 +24°C° 0 mm 1 mps 732 mmHg 50%
    10:00 +26°C° 0 mm 1 mps 732 mmHg 43%
    11:00 +26°C° 0 mm 1 mps 731 mmHg 42%
    12:00 +27°C° 0 mm 1 mps 731 mmHg 41%
    13:00 +27°C° 0 mm 1 mps 730 mmHg 40%
    14:00 +27°C° 0 mm 1 mps 730 mmHg 40%
    15:00 +27°C° 0 mm 1 mps 730 mmHg 41%
    16:00 +27°C° 0 mm 2 mps 730 mmHg 41%
    17:00 +26°C° 0 mm 1 mps 730 mmHg 48%
    18:00 +25°C° 0 mm 1 mps 729 mmHg 55%
    19:00 +24°C° 0 mm 1 mps 729 mmHg 62%
    20:00 +23°C° 0 mm 1 mps 729 mmHg 64%
    21:00 +22°C° 0 mm 1 mps 729 mmHg 66%
    22:00 +21°C° 0 mm 1 mps 729 mmHg 68%
    23:00 +20°C° 0.2 mm 1 mps 729 mmHg 71%

    Day after tomorrow, 21 July, Saturday

    Time Temperature Precipitation Wind Pressure Humidity
    00:00 +20°C° 0.2 mm 1 mps 729 mmHg 74%
    01:00 +19°C° 0.2 mm 1 mps 729 mmHg 77%
    02:00 +19°C° 0 mm 1 mps 728 mmHg 77%
    03:00 +19°C° 0 mm 1 mps 728 mmHg 77%
    04:00 +19°C° 0 mm 1 mps 728 mmHg 77%
    05:00 +19°C° 0.1 mm 1 mps 728 mmHg 77%
    06:00 +19°C° 0.1 mm 1 mps 728 mmHg 78%
    07:00 +19°C° 0.1 mm 1 mps 728 mmHg 78%
    08:00 +21°C° 0.1 mm 1 mps 728 mmHg 74%
    09:00 +22°C° 0.1 mm 1 mps 729 mmHg 70%
    10:00 +23°C° 0.1 mm 1 mps 729 mmHg 66%
    11:00 +24°C° 0.4 mm 2 mps 729 mmHg 63%
    12:00 +25°C° 0.4 mm 2 mps 729 mmHg 59%
    13:00 +26°C° 0.4 mm 2 mps 729 mmHg 56%
    14:00 +26°C° 0.5 mm 2 mps 729 mmHg 56%
    15:00 +26°C° 0.5 mm 2 mps 729 mmHg 56%
    16:00 +26°C° 0.5 mm 2 mps 728 mmHg 56%
    17:00 +25°C° 0.5 mm 2 mps 728 mmHg 60%
    18:00 +24°C° 0.5 mm 2 mps 729 mmHg 65%
    19:00 +23°C° 0.5 mm 2 mps 729 mmHg 69%
    20:00 +21°C° 0.1 mm 2 mps 729 mmHg 72%
    21:00 +19°C° 0.1 mm 2 mps 729 mmHg 75%
    22:00 +18°C° 0.1 mm 2 mps 729 mmHg 79%
    23:00 +17°C° 0 mm 2 mps 729 mmHg 79%

    22 July, Sunday

    Time Temperature Precipitation Wind Pressure Humidity
    00:00 +16°C° 0 mm 1 mps 729 mmHg 80%
    01:00 +16°C° 0 mm 1 mps 730 mmHg 81%
    02:00 +15°C° 0 mm 1 mps 730 mmHg 81%
    03:00 +15°C° 0 mm 1 mps 730 mmHg 82%
    04:00 +13°C° 0 mm 0 mps 730 mmHg 82%
    05:00 +15°C° 0 mm 1 mps 730 mmHg 79%
    06:00 +16°C° 0 mm 1 mps 730 mmHg 77%
    07:00 +18°C° 0 mm 1 mps 730 mmHg 74%
    08:00 +20°C° 0 mm 1 mps 731 mmHg 68%
    09:00 +21°C° 0 mm 1 mps 731 mmHg 61%
    10:00 +23°C° 0 mm 2 mps 731 mmHg 54%
    11:00 +23°C° 0.1 mm 2 mps 731 mmHg 52%
    12:00 +24°C° 0.1 mm 2 mps 731 mmHg 50%
    13:00 +25°C° 0.1 mm 3 mps 730 mmHg 48%
    14:00 +25°C° 0 mm 3 mps 730 mmHg 47%
    15:00 +25°C° 0 mm 3 mps 730 mmHg 47%
    16:00 +25°C° 0 mm 3 mps 730 mmHg 46%
    17:00 +24°C° 0 mm 3 mps 731 mmHg 51%
    18:00 +24°C° 0 mm 2 mps 731 mmHg 55%
    19:00 +23°C° 0 mm 2 mps 731 mmHg 59%
    20:00 +20°C° 0 mm 2 mps 731 mmHg 66%
    21:00 +19°C° 0 mm 2 mps 732 mmHg 72%
    22:00 +17°C° 0 mm 2 mps 732 mmHg 79%
    23:00 +16°C° 0 mm 1 mps 732 mmHg 82%

    23 July, Monday

    Time Temperature Precipitation Wind Pressure Humidity
    00:00 +16°C° 0 mm 1 mps 732 mmHg 85%
    01:00 +15°C° 0 mm 1 mps 732 mmHg 88%
    02:00 +15°C° 0 mm 1 mps 732 mmHg 89%
    03:00 +13°C° 0 mm 0 mps 732 mmHg 89%
    04:00 +13°C° 0 mm 0 mps 732 mmHg 90%
    05:00 +14°C° 0 mm 0 mps 732 mmHg 86%
    06:00 +15°C° 0 mm 0 mps 733 mmHg 83%
    07:00 +16°C° 0 mm 0 mps 733 mmHg 79%
    08:00 +18°C° 0 mm 0 mps 733 mmHg 71%
    09:00 +22°C° 0 mm 1 mps 733 mmHg 62%
    10:00 +24°C° 0 mm 1 mps 733 mmHg 53%
    11:00 +25°C° 0 mm 1 mps 733 mmHg 49%
    12:00 +26°C° 0 mm 1 mps 733 mmHg 45%
    13:00 +27°C° 0 mm 1 mps 732 mmHg 42%
    14:00 +27°C° 0 mm 1 mps 732 mmHg 41%
    15:00 +27°C° 0 mm 1 mps 732 mmHg 41%
    16:00 +27°C° 0 mm 1 mps 732 mmHg 41%
    17:00 +26°C° 0 mm 1 mps 732 mmHg 45%
    18:00 +26°C° 0 mm 1 mps 732 mmHg 50%
    19:00 +25°C° 0 mm 1 mps 732 mmHg 55%
    20:00 +23°C° 0 mm 1 mps 732 mmHg 59%
    21:00 +22°C° 0 mm 1 mps 732 mmHg 64%
    22:00 +20°C° 0 mm 1 mps 732 mmHg 69%
    23:00 +18°C° 0 mm 2 mps 732 mmHg 70%

    24 July, Tuesday

    Time Temperature Precipitation Wind Pressure Humidity
    00:00 +18°C° 0 mm 2 mps 731 mmHg 72%
    01:00 +17°C° 0 mm 2 mps 731 mmHg 73%
    02:00 +18°C° 0 mm 1 mps 731 mmHg 74%
    03:00 +18°C° 0 mm 1 mps 731 mmHg 75%
    04:00 +16°C° 0 mm 1 mps 731 mmHg 75%
    05:00 +18°C° 0 mm 1 mps 731 mmHg 72%
    06:00 +20°C° 0 mm 1 mps 731 mmHg 70%
    07:00 +21°C° 0 mm 1 mps 731 mmHg 67%
    08:00 +23°C° 0 mm 1 mps 731 mmHg 60%
    09:00 +25°C° 0 mm 1 mps 731 mmHg 54%
    10:00 +27°C° 0 mm 1 mps 731 mmHg 47%
    11:00 +28°C° 0 mm 1 mps 731 mmHg 43%
    12:00 +29°C° 0 mm 1 mps 731 mmHg 40%
    13:00 +30°C° 0 mm 1 mps 731 mmHg 37%
    14:00 +30°C° 0 mm 1 mps 731 mmHg 37%
    15:00 +30°C° 0 mm 1 mps 731 mmHg 37%
    16:00 +30°C° 0 mm 1 mps 731 mmHg 37%
    17:00 +29°C° 0 mm 1 mps 731 mmHg 42%
    18:00 +28°C° 0 mm 1 mps 731 mmHg 47%
    19:00 +27°C° 0 mm 1 mps 731 mmHg 52%
    20:00 +26°C° 0 mm 1 mps 731 mmHg 54%
    21:00 +24°C° 0 mm 1 mps 731 mmHg 57%
    22:00 +23°C° 0 mm 1 mps 731 mmHg 60%
    23:00 +22°C° 0 mm 1 mps 731 mmHg 62%
    Show more